Location: Brompton
(51.4000°N, 0.5333°E)
Time: 04:07:44
(UTC+00:00)

SJ 16-02 - Pass Details

Date: 11 May 2021
Orbit: 606 x 616 km, 75.0° (Epoch: 13 June)

Event Time Altitude Azimuth Distance (km) Brightness Sun altitude
Exits shadow 21:19:30 12° 181° (S) 1,829 3.3 -12.7°
Maximum altitude 21:23:24 52° 107° (ESE) 775 1.5 -13.1°
Drops below altitude 10° 21:27:43 10° 31° (NNE) 1,991 4.3 -13.5°
Sets 21:30:00 0° 27° (NNE) 2,901 5.2 -13.7°
